Tracking 18032 objects as of 27-March-2017
HD Live streaming from Space Station
objects crossing your sky now

OPS 9326 (IDSCS 13)

Track OPS 9326 (IDSCS 13) now!
OPS 9326 (IDSCS 13) is classified as:


NORAD ID: 2653
Int'l Code: 1967-003F
Perigee: 33,643.3 km
Apogee: 33,996.1 km
Inclination: 2.2 °
Period: 1,336.4 minutes
Semi major axis: 40190 km
RCS: 0.7944 m2 (medium)
Launch date: January 18, 1967
Source: United States (US)
Launch site: AIR FORCE EASTERN TEST RANGE (AFETR)
Your satellite tracking list
Your tracking list is empty





NASA's NSSDC Master Catalog

Two Line Element Set (TLE):
1  2653U 67003F   17084.82819185 -.00000127 +00000-0 +00000-0 0  9995
2  2653 002.1891 053.3775 0043892 349.5861 173.5621 01.07749427096406
Source of the keplerian elements: AFSPC